[[{"header":{"parameterUnit":"m.s-1","parameterCategory":1,"la1":30.2991,"la2":30.254,"lo1":-89.0895,"lo2":-89.0444,"dy":0.0017,"dx":0.0017,"nx":28,"ny":28,"refTime":"2023-09-28T03:00:00:Z","depth":0,"parameterNumber":2,"parameterNumberName":"U-component_of_WINDS"},"data":[0,0,0,0,0,0,0,0,0,0,0,0,0,0,0,0,0,0,0,0,0,0,0,0,0,0,0,0,0,0,0,0,0,0,0,0,0,0,0,0,0,0,0,0,0,0,0,0,0,0,0,0,0,0,0,0,0,0,-4.1495,-4.1495,0,-4.1505,-4.1505,-4.1505,-4.1396,-4.1393,-4.139,-4.1387,-4.1399,-4.1402,-4.1405,0,0,0,0,0,0,0,0,0,0,0,0,0,-4.1383,-4.1386,-4.1495,-4.1495,-4.1495,-4.1505,-4.1505,-4.1505,-4.1397,-4.1393,-4.139,-4.1386,-4.1398,-4.1401,-4.1405,0,0,0,0,0,0,0,0,0,0,0,0,0,-4.1417,-4.1387,-4.1495,-4.1442,-4.1438,-4.1505,-4.1505,-4.1505,-4.1398,-4.1393,-4.1389,-4.1384,-4.1396,-4.1401,-4.1405,-4.1524,0,0,-4.142,-4.1422,0,0,0,0,0,0,0,0,-4.1415,-4.1421,-4.145,-4.1446,-4.1441,-4.1445,-4.147,-4.1512,-4.1399,-4.1413,-4.1387,-4.1382,-4.1418,-4.142,-4.1432,-4.1525,-4.1525,-4.142,-4.1423,-4.1425,-4.1426,0,0,0,0,0,0,0,-4.1413,-4.142,-4.1499,-4.145,-4.1445,-4.1419,-4.1418,-4.1477,-4.144,-4.1411,-4.1403,-4.1406,-4.1414,-4.1428,-4.1432,-4.1525,-4.142,-4.1424,-4.1427,-4.1429,-4.1718,-4.1723,0,0,0,0,0,0,-4.1417,-4.1419,-4.1498,-4.1499,-4.1416,-4.1424,-4.1424,-4.1448,-4.1439,-4.1434,-4.141,-4.1401,-4.1422,-4.1426,-4.1432,-4.1571,-4.1425,-4.1429,-4.1432,-4.1713,-4.1719,-4.1724,0,0,0,0,0,0,-4.1415,-4.1425,-4.1498,-4.1457,-4.1464,-4.1431,-4.1459,-4.1451,-4.1464,-4.1438,-4.1431,-4.143,-4.1419,-4.1425,-4.1502,-4.157,-4.1431,-4.1435,-4.1707,-4.1715,-4.1722,-4.1852,0,0,0,0,0,0,-4.1413,-4.1425,-4.147,-4.1459,-4.1467,-4.1569,-4.1463,-4.1454,-4.1472,-4.1461,-4.1456,-4.1451,-4.1416,-4.1496,-4.1507,-4.1574,-4.1439,-4.1701,-4.1711,-4.172,-4.1841,-4.1863,-4.1881,0,0,0,0,0,-4.1409,-4.1505,-4.1472,-4.1483,-4.1521,-4.1573,-4.1577,-4.1535,-4.1478,-4.1523,-4.1507,-4.1451,-4.1561,-4.1505,-4.1516,-4.1586,-4.1697,-4.1708,-4.1719,-4.1832,-4.1858,-4.188,0,0,0,0,0,0,-4.1525,-4.1503,-4.1466,-4.1562,-4.157,-4.1554,-4.1609,-4.1564,-4.1588,-4.1577,-4.1523,-4.1523,-4.161,-4.1605,-4.1543,-4.1701,-4.1619,-4.1633,-4.1701,-4.1726,-4.1745,-4.1745,-4.1443,0,0,0,0,0,-4.1562,-4.1605,-4.1583,-4.167,-4.1676,-4.1643,-4.1663,-4.163,-4.1637,-4.164,-4.1629,-4.1638,-4.1674,-4.17,-4.1732,-4.184,-4.1838,-4.1894,-4.1913,-4.193,-4.1943,-4.2002,-4.2027,-4.1761,-4.1761,-4.176,0,0,-4.1638,-4.1631,-4.1662,-4.1693,-4.1696,-4.1743,-4.1646,-4.1699,-4.1734,-4.1647,-4.172,-4.1713,-4.172,-4.1814,-4.1854,-4.1813,-4.2016,-4.1944,-4.1957,-4.1961,-4.2016,-4.2041,-4.2063,-4.1768,-4.1767,-4.1766,0,0,-4.1801,-4.18,-4.1873,-4.1878,-4.1883,-4.186,-4.1878,-4.187,-4.1862,-4.1934,-4.1871,-4.1912,-4.1975,-4.1983,-4.1996,-4.2165,-4.2115,-4.2177,-4.2281,-4.2339,-4.236,-4.2378,-4.244,-4.2463,-4.2189,-4.219,-4.219,0,-4.1895,-4.1963,-4.1916,-4.1974,-4.1991,-4.1915,-4.1989,-4.1996,-4.2012,-4.2026,-4.1979,-4.2059,-4.2057,-4.2153,-4.2195,-4.2207,-4.2227,-4.2177,-4.236,-4.2378,-4.2395,-4.2453,-4.2477,-4.2197,-4.2196,-4.2196,-4.2195,0,-4.208,-4.2128,-4.2186,-4.2204,-4.2227,-4.2293,-4.2257,-4.2286,-4.2252,-4.2234,-4.231,-4.2306,-4.2337,-4.2357,-4.2324,-4.245,-4.2424,-4.2369,-4.2286,-4.2429,-4.2483,-4.2505,-4.2208,-4.2205,-4.2203,-4.2201,0,0,-4.2316,-4.2308,-4.233,-4.2339,-4.234,-4.2376,-4.244,-4.247,-4.2497,-4.2511,-4.2564,-4.2621,-4.2571,-4.2586,-4.2552,-4.2603,-4.274,-4.2543,-4.2542,-4.2581,-4.2881,-4.2923,-4.2949,-4.2707,-4.2711,-4.2714,-4.2881,0,-4.2477,-4.2584,-4.2544,-4.2655,-4.27,-4.263,-4.2685,-4.2693,-4.2679,-4.2715,-4.2699,-4.2742,-4.2672,-4.268,-4.2728,-4.2713,-4.28,-4.2701,-4.2757,-4.2759,-4.2759,-4.2977,-4.3021,-4.3178,-4.2901,-4.2905,-4.2907,0,-4.2678,-4.2701,-4.2816,-4.2812,-4.2829,-4.288,-4.2906,-4.2941,-4.2949,-4.2935,-4.2952,-4.2909,-4.2972,-4.2888,-4.2975,-4.2909,-4.2929,-4.2926,-4.2931,-4.2936,-4.2843,-4.2989,-4.3227,-4.3252,-4.294,-4.2937,-4.2935,0,-4.2841,-4.2901,-4.2978,-4.2987,-4.2982,-4.302,-4.302,-4.3023,-4.3045,-4.3068,-4.3082,-4.3112,-4.3129,-4.3154,-4.312,-4.3062,-4.3213,-4.3126,-4.3205,-4.3206,-4.324,-4.3239,-4.3487,-4.3252,-4.3252,-4.3251,-4.3251,0,-4.3025,-4.3099,-4.3051,-4.3099,-4.3181,-4.3134,-4.3216,-4.3209,-4.3213,-4.3258,-4.3199,-4.3244,-4.3195,-4.3236,-4.321,-4.3287,-4.3295,-4.3287,-4.3279,-4.3293,-4.3294,-4.3307,-4.3295,-4.3257,-4.3256,-4.3255,-4.3254,0,-4.3222,-4.3192,-4.3272,-4.3262,-4.3261,-4.3322,-4.3314,-4.3358,-4.334,-4.3399,-4.3411,-4.3383,-4.3428,-4.3396,-4.3441,-4.3423,-4.3526,-4.3502,-4.3523,-4.3518,-4.3599,-4.3593,-4.3865,-4.3899,-4.3641,-4.3643,-4.3645,0,-4.3342,-4.3397,-4.3393,-4.342,-4.3424,-4.3467,-4.3489,-4.3447,-4.3472,-4.3486,-4.353,-4.3569,-4.3599,-4.3674,-4.3658,-4.3693,-4.367,-4.3763,-4.3675,-4.3688,-4.3674,-4.3672,-4.3678,-4.3782,-4.3785,-4.3787,-4.3789,0,-4.3559,-4.3542,-4.3576,-4.3606,-4.3634,-4.3656,-4.3672,-4.3698,-4.3654,-4.3687,-4.3732,-4.3755,-4.3801,-4.3842,-4.3871,-4.3871,-4.3825,-4.3817,-4.3838,-4.3853,-4.3864,-4.3861,-4.3574,-4.3811,-4.3809,-4.3807,-4.3806,-4.3805,-4.3722,-4.3769,-4.3774,-4.3814,-4.3823,-4.384,-4.3882,-4.387,-4.3906,-4.3941,-4.3913,-4.3968,-4.3976,-4.4009,-4.4016,-4.4059,-4.4021,-4.405,-4.4058,-4.4066,-4.4079,-4.3856,-4.4064,-4.4063,-4.4063,-4.4062,-4.4062,0,-4.3938,-4.3938,-4.3975,-4.4001,-4.4034,-4.3986,-4.4002,-4.4033,-4.4082,-4.4093,-4.4123,-4.4177,-4.4216,-4.4205,-4.424,-4.4277,-4.4257,-4.4288,-4.4286,-4.4287,-4.411,-4.4089,-4.4304,-4.4304,-4.4304,-4.4304,-4.4304,-4.4304,-4.4054,-4.4131,-4.4115,-4.4197,-4.4196,-4.4249,-4.4263,-4.4279,-4.4288,-4.435,-4.4383,-4.4375,-4.4377,-4.4413,-4.4448,-4.4444,-4.4461,-4.4501,-4.4489,-4.4323,-4.4299,-4.4277,-4.4257,-4.4504,-4.4504,-4.4663,-4.4664,-4.4665]},{"header":{"parameterUnit":"m.s-1","parameterCategory":1,"la1":30.2991,"la2":30.254,"lo1":-89.0895,"lo2":-89.0444,"dy":0.0017,"dx":0.0017,"nx":28,"ny":28,"refTime":"2023-09-28T03:00:00:Z","depth":0,"parameterNumber":3,"parameterNumberName":"V-component_of_WINDS"},"data":[0,0,0,0,0,0,0,0,0,0,0,0,0,0,0,0,0,0,0,0,0,0,0,0,0,0,0,0,0,0,0,0,0,0,0,0,0,0,0,0,0,0,0,0,0,0,0,0,0,0,0,0,0,0,0,0,0,0,-2.1299,-2.13,0,-2.1456,-2.1457,-2.1459,-2.1534,-2.1534,-2.1534,-2.1534,-2.1687,-2.1691,-2.1695,0,0,0,0,0,0,0,0,0,0,0,0,0,-2.1057,-2.1061,-2.1298,-2.13,-2.1302,-2.1455,-2.1457,-2.1459,-2.1534,-2.1534,-2.1534,-2.1534,-2.1686,-2.1691,-2.1696,0,0,0,0,0,0,0,0,0,0,0,0,0,-2.1182,-2.1062,-2.1298,-2.1358,-2.1365,-2.1455,-2.1457,-2.146,-2.1534,-2.1534,-2.1534,-2.1534,-2.1684,-2.169,-2.1697,-2.1736,0,0,-2.1715,-2.1718,0,0,0,0,0,0,0,0,-2.1175,-2.1191,-2.1347,-2.1354,-2.1362,-2.1475,-2.1429,-2.1552,-2.1534,-2.147,-2.1534,-2.1534,-2.1616,-2.1628,-2.1658,-2.1743,-2.175,-2.1716,-2.172,-2.1722,-2.1724,0,0,0,0,0,0,0,-2.1166,-2.1184,-2.136,-2.1349,-2.1359,-2.1375,-2.1393,-2.1452,-2.1541,-2.1475,-2.1481,-2.1499,-2.162,-2.1651,-2.1662,-2.1752,-2.1716,-2.1721,-2.1725,-2.1728,-2.1879,-2.1879,0,0,0,0,0,0,-2.1149,-2.1177,-2.1355,-2.1365,-2.1267,-2.1379,-2.1399,-2.1439,-2.1541,-2.1556,-2.1499,-2.1502,-2.1641,-2.1654,-2.1667,-2.1722,-2.1722,-2.1728,-2.1732,-2.1879,-2.1879,-2.1879,0,0,0,0,0,0,-2.1143,-2.1164,-2.1349,-2.1273,-2.1298,-2.1384,-2.1427,-2.1442,-2.1473,-2.1559,-2.1574,-2.1515,-2.1641,-2.1659,-2.1719,-2.1728,-2.1731,-2.1737,-2.1878,-2.1879,-2.1879,-2.1829,0,0,0,0,0,0,-2.1136,-2.1161,-2.1179,-2.1273,-2.1301,-2.14,-2.1428,-2.1445,-2.1485,-2.149,-2.1578,-2.1592,-2.1643,-2.171,-2.1725,-2.1736,-2.1741,-2.1878,-2.1878,-2.1879,-2.183,-2.1828,-2.1825,0,0,0,0,0,-2.1127,-2.1157,-2.1179,-2.12,-2.1325,-2.14,-2.1417,-2.1476,-2.1485,-2.1502,-2.1557,-2.1589,-2.1724,-2.1715,-2.1733,-2.1746,-2.1878,-2.1878,-2.1879,-2.1831,-2.1828,-2.1825,0,0,0,0,0,0,-2.1059,-2.117,-2.1196,-2.1258,-2.1319,-2.1413,-2.1437,-2.1471,-2.1529,-2.1531,-2.16,-2.1619,-2.1674,-2.1716,-2.1704,-2.179,-2.1804,-2.1808,-2.1761,-2.1759,-2.1757,-2.1745,-2.1747,0,0,0,0,0,-2.1051,-2.1105,-2.1198,-2.1243,-2.1273,-2.1349,-2.1384,-2.1425,-2.1491,-2.1516,-2.1576,-2.1636,-2.1693,-2.1728,-2.1784,-2.1836,-2.1857,-2.1854,-2.1852,-2.1849,-2.1852,-2.1884,-2.1884,-2.1882,-2.1882,-2.1882,0,0,-2.1035,-2.1103,-2.1132,-2.1231,-2.1284,-2.1337,-2.1371,-2.1424,-2.1464,-2.1524,-2.1586,-2.1631,-2.1703,-2.176,-2.1788,-2.1797,-2.1858,-2.185,-2.1848,-2.1852,-2.1885,-2.1885,-2.1885,-2.1882,-2.1882,-2.1882,0,0,-2.1034,-2.109,-2.1135,-2.1188,-2.1268,-2.1319,-2.1329,-2.1418,-2.1451,-2.1515,-2.1562,-2.1608,-2.1703,-2.1753,-2.179,-2.1809,-2.184,-2.1825,-2.1812,-2.1842,-2.1842,-2.1843,-2.185,-2.1851,-2.1827,-2.1827,-2.1827,0,-2.1003,-2.1087,-2.1152,-2.1205,-2.1247,-2.1306,-2.1351,-2.1398,-2.1491,-2.1518,-2.1527,-2.1649,-2.1701,-2.1771,-2.1776,-2.1804,-2.1817,-2.1815,-2.1837,-2.1839,-2.184,-2.1847,-2.185,-2.1825,-2.1825,-2.1825,-2.1826,0,-2.1046,-2.1103,-2.1129,-2.1221,-2.1266,-2.1313,-2.1384,-2.1421,-2.1458,-2.1507,-2.1571,-2.1636,-2.1707,-2.1727,-2.1762,-2.1801,-2.1805,-2.1824,-2.1839,-2.1837,-2.1845,-2.1848,-2.1822,-2.1822,-2.1823,-2.1824,0,0,-2.1005,-2.1135,-2.1143,-2.1186,-2.1279,-2.1323,-2.1373,-2.1446,-2.1476,-2.1538,-2.1581,-2.1661,-2.1681,-2.1723,-2.1764,-2.179,-2.1802,-2.1808,-2.181,-2.1805,-2.185,-2.1835,-2.1837,-2.1823,-2.1824,-2.1824,-2.1844,0,-2.1018,-2.1113,-2.1174,-2.1244,-2.1298,-2.1355,-2.1399,-2.1459,-2.1506,-2.1557,-2.1608,-2.1664,-2.1685,-2.1711,-2.174,-2.1794,-2.1812,-2.1793,-2.1863,-2.1864,-2.1844,-2.1841,-2.1826,-2.1841,-2.1848,-2.1848,-2.1849,0,-2.1045,-2.1109,-2.1185,-2.1274,-2.1298,-2.1337,-2.1408,-2.1456,-2.1526,-2.1558,-2.1607,-2.1649,-2.1702,-2.1712,-2.1787,-2.1773,-2.1805,-2.1836,-2.1838,-2.1847,-2.1857,-2.1851,-2.1847,-2.1849,-2.1854,-2.1854,-2.1853,0,-2.1008,-2.1113,-2.1173,-2.1208,-2.1312,-2.1338,-2.1382,-2.1452,-2.1492,-2.1553,-2.158,-2.1645,-2.1681,-2.173,-2.1789,-2.1791,-2.1857,-2.1872,-2.1885,-2.1883,-2.1896,-2.1895,-2.1898,-2.1915,-2.1915,-2.1915,-2.1915,0,-2.1016,-2.106,-2.1159,-2.1195,-2.1247,-2.1315,-2.1363,-2.1412,-2.1474,-2.152,-2.1572,-2.1613,-2.1688,-2.1738,-2.1783,-2.1838,-2.1853,-2.188,-2.1892,-2.1876,-2.1873,-2.1898,-2.1899,-2.1916,-2.1916,-2.1916,-2.1916,0,-2.0984,-2.1052,-2.1121,-2.1215,-2.124,-2.1274,-2.1353,-2.139,-2.1441,-2.1498,-2.1515,-2.1593,-2.1655,-2.1718,-2.1801,-2.1831,-2.1885,-2.19,-2.1862,-2.1869,-2.1878,-2.1877,-2.1899,-2.1905,-2.1917,-2.1917,-2.1916,0,-2.0985,-2.1022,-2.112,-2.1156,-2.12,-2.1257,-2.1299,-2.1367,-2.1408,-2.149,-2.1517,-2.1583,-2.164,-2.1735,-2.1798,-2.1862,-2.188,-2.1883,-2.1889,-2.1873,-2.188,-2.1878,-2.1882,-2.188,-2.188,-2.1879,-2.1879,0,-2.0979,-2.1012,-2.1071,-2.1143,-2.1192,-2.1251,-2.1311,-2.1337,-2.1416,-2.1459,-2.1525,-2.1569,-2.1654,-2.1719,-2.179,-2.1834,-2.1869,-2.1877,-2.1883,-2.1868,-2.1844,-2.1858,-2.1856,-2.1876,-2.1876,-2.1877,-2.1877,-2.1877,-2.0965,-2.1,-2.1076,-2.1141,-2.1194,-2.125,-2.129,-2.1346,-2.1402,-2.148,-2.1515,-2.1581,-2.1649,-2.1749,-2.1792,-2.1843,-2.1853,-2.1862,-2.1864,-2.1865,-2.1862,-2.1836,-2.1856,-2.1856,-2.1856,-2.1856,-2.1856,0,-2.0963,-2.1015,-2.1074,-2.1158,-2.1209,-2.1241,-2.1309,-2.1349,-2.1407,-2.1469,-2.1525,-2.1599,-2.1663,-2.1731,-2.1798,-2.1826,-2.1844,-2.1841,-2.184,-2.1849,-2.1849,-2.1837,-2.1825,-2.1825,-2.1825,-2.1825,-2.1825,-2.1825,-2.0967,-2.103,-2.107,-2.1159,-2.121,-2.1277,-2.1313,-2.1364,-2.1415,-2.1497,-2.1551,-2.1596,-2.1661,-2.1733,-2.1792,-2.181,-2.1833,-2.1825,-2.1848,-2.1847,-2.1849,-2.1851,-2.1841,-2.1829,-2.1829,-2.1844,-2.1844,-2.1844]}]]